星链-4567 (STARLINK-4567 )

导读 | 豆包AI

STARLINK-4567是美国太空探索技术公司星链互联网卫星星座的一员,于2022年10月5日发射入轨。星链星座旨在为全球提供高速低延迟互联网服务,该卫星服役后承担卫星信号中继任务,截至2026年3月已在轨运行超三年,持续为用户提供宽带互联网接入服务。

基本信息
目录编号:
53970
目录名称:
STARLINK-4567
国际标识:
2022-125G
轨道中心:
EARTH
卫星名称:
星链-4567
卫星全名:
星链-4567 (STARLINK-4567 )
卫星状态:
在轨 (已飞行1303 天)
发射日期:
2022-10-05 UTC
国别 :
美国 (US)
星等 :
--
轨道信息
数据来源 国际轨道数据 AOE轨道数据
星历时间 2026-04-30T05:43:45+0800
20小时前
查看轨道信息
2026-04-28T18:00:00+0800
2天前
查看轨道信息
半长轴 6917.877km 6917.881km
偏心率 0.0001382 0.0001505
轨道倾角 53.218° 53.217°
近地点辐角 92.028° 81.945°
升交点赤经 349.243° 355.928°
平近点角 268.087° 107.296°
近地点 538.783km 538.702km
远地点 540.697km 540.786km
周期 95.437分钟 95.438分钟
每日圈数 15.088414 15.088399
详细信息
固有亮度:
5
最大亮度:
2.5
卫星平台:
Starlink v1.5
覆盖范围:
全球
运营商:
太空探索技术公司
运营商所在国:
美国
制造商(研发单位):
太空探索技术公司
制造商所在国:
美国
使用方式:
暂无
卫星简介
星链(Starlink)计划是由太空探索技术公司(SpaceX)提出的一个巨型低轨卫星互联网星座项目,计划在2019年至2024年间在太空搭建由约1.2万颗卫星组成的“星链”网络,其中1584颗将部署在地球上空550千米处的近地轨道,并从2020年开始工作。该卫星仍在工作。
2D轨道图
3D轨道图
轨道高度分析图
轨道倾角分析图
轨道综合分析图
查看轨道综合分析图